Flag for U.S.A. Weather past 2 weeks in Myrtle Beach, South Carolina, U.S.A.

Now
64 °F

Clear.


Feels Like: 64 °F
Forecast: 65 / 81 °F
Wind: 3 mph from North

Location: Myrtle Beach Air Force Base

Current Time: Oct 1, 2014 at 5:11:44 AM

Latest Report: Oct 1, 2014 at 4:35 AM


Visibility: 10 mi

Pressure: 29.90 "Hg

Humidity: 88%

Dew point: 61 °F

Location of Myrtle BeachLocation

Historic Weather in Myrtle Beach — Graph

°F

Myrtle Beach temperature yesterday

Maximum temperature yesterday: 82 °F (at 3:45 PM)
Minimum temperature yesterday: 64 °F (at 12:15 AM)
Average temperature yesterday: 69 °F

Past Weeks' High & Low Weather Summary

 TemperatureHumidityPressure
High88 °F (Sep 21, 4:45 PM)94% (Sep 16, 6:35 AM)30.20 "Hg (Sep 16, 6:35 AM)
Low61 °F (Sep 23, 5:45 PM)43% (Sep 21, 4:45 PM)29.83 "Hg (Sep 21, 3:55 AM)
Average72 °F79%30.03 "Hg
* Reported Sep 16 3:15 AM — Oct 1 3:55 AM, Myrtle Beach, Weather by CustomWeather, © 2014

Note: Actual official high and low records may vary slightly from our data, if they occured in-between our weather recording intervals... More about our weather records

Advertising

Myrtle Beach weather history for previous 24 hours

 ConditionsComfort  
Time TempWeatherWind HumidityBarometerVisibility
3:55 AM
Oct 1
66 °FClear.3 mph88%29.89 "Hg10 mi
3:35 AM66 °FClear.5 mph88%29.89 "Hg10 mi
3:15 AM66 °FClear.5 mph88%29.89 "Hg10 mi
2:55 AM66 °FClear.3 mph88%29.90 "Hg10 mi
2:35 AM64 °FClear.No wind88%29.90 "Hg10 mi
1:55 AM64 °FClear.3 mph94%29.90 "Hg10 mi
1:35 AM64 °FClear.No wind94%29.90 "Hg10 mi
1:15 AM64 °FClear.3 mph94%29.90 "Hg10 mi
12:55 AM66 °FClear.No wind88%29.90 "Hg10 mi
12:35 AM66 °FClear.No wind88%29.90 "Hg10 mi
12:15 AM68 °FClear.5 mph83%29.90 "Hg10 mi
11:55 PM
Sep 30
68 °FClear.5 mph83%29.90 "Hg10 mi
11:35 PM68 °FClear.No wind88%29.90 "Hg10 mi
11:15 PM68 °FClear.No wind88%29.90 "Hg10 mi
10:55 PM68 °FClear.No wind88%29.90 "Hg10 mi
9:50 PM70 °FClear.5 mph83%29.88 "Hg10 mi
6:50 PM79 °FScattered clouds.8 mph58%29.85 "Hg10 mi
5:47 PM82 °FScattered clouds.9 mph51%29.83 "Hg10 mi
4:45 PM82 °FScattered clouds.8 mph51%29.83 "Hg10 mi
3:45 PM82 °FPassing clouds.9 mph51%29.83 "Hg10 mi
2:45 PM81 °FPassing clouds.12 mph54%29.83 "Hg10 mi
1:45 PM81 °FSunny.N/A51%29.86 "Hg10 mi
12:45 PM79 °FSunny.N/A58%29.88 "Hg10 mi
11:45 AM77 °FSunny.12 mph61%29.90 "Hg10 mi
10:45 AM73 °FSunny.13 mph65%29.91 "Hg10 mi
9:45 AM70 °FSunny.12 mph73%29.90 "Hg10 mi
8:45 AM66 °FSunny.9 mph83%29.91 "Hg10 mi
7:45 AM64 °FFog.9 mph88%29.90 "Hg6 mi
6:48 AM64 °FPassing clouds.9 mph88%29.88 "Hg7 mi
5:45 AM64 °FPassing clouds.7 mph88%29.87 "Hg9 mi
5:35 AM66 °FOvercast.7 mph83%29.87 "Hg10 mi
5:15 AM64 °FOvercast.9 mph88%29.87 "Hg10 mi
Weather by CustomWeather, © 2014

See weather overviewHow to use our weather pages